Tracking 30402 objects as of 13-May-2025
HD Live streaming from Space Station
objects crossing your sky now

PSLV R/B

Track PSLV R/B now!
10-day predictions


NORAD ID: 37842
Int'l Code: 2011-058E
Perigee: 783.8 km
Apogee: 869.5 km
Inclination: 19.8 °
Period: 101.3 minutes
Semi major axis: 7197 km
RCS: 0.1259 m2 (medium)
Launch date: October 12, 2011
Source: India (IND)
Launch site: SRIHARIKOTA (SRI)

Note: This is a ROCKET BODY
Your satellite tracking list
Your tracking list is empty




NASA's NSSDC Master Catalog

Two Line Element Set (TLE):
1 37842U 11058E   25132.61496812  .00000387  00000-0  48735-4 0  9998
2 37842  19.7923 123.4065 0059515 188.7734 171.1628 14.21723003706586
Source of the keplerian elements: AFSPC